Location: Mladá Boleslav
(50.4134°N, 14.9084°E)
Time: 01:00:55
(UTC+02:00)

NOAA 18 - Visible Passes

Search period start: 28 May 2024 00:00
Search period end: 07 June 2024 00:00
Orbit: 837 x 859 km, 98.9° (Epoch: 27 May)

Date Brightness Start Highest point End Pass type
(mag) Time Alt. Az. Time Alt. Az. Time Alt. Az.
28 May 6.5 21:36:21 10° ESE 21:40:50 27° ENE 21:45:18 10° N visible
28 May 5.5 23:17:05 18° S 23:21:07 61° WSW 23:26:33 10° NNW visible
29 May 5.3 23:04:22 18° S 23:08:34 76° WSW 23:14:04 10° NNW visible
30 May 7.4 00:47:46 10° WSW 00:50:08 13° W 00:52:32 10° WNW visible
30 May 5.2 22:51:39 17° SSE 22:56:03 88° ENE 23:01:33 10° NNW visible
31 May 7.3 00:34:04 10° SW 00:37:26 16° W 00:40:47 10° NW visible
31 May 5.3 22:38:56 15° SSE 22:43:33 72° ENE 22:49:00 10° NNW visible
01 Jun 7.0 00:20:53 11° SW 00:24:45 20° W 00:28:45 10° NW visible
01 Jun 5.5 22:26:14 13° SE 22:31:04 58° ENE 22:36:26 10° N visible
02 Jun 6.8 00:08:11 12° SW 00:12:04 25° W 00:16:34 10° NW visible
02 Jun 5.7 22:13:31 11° SE 22:18:36 47° ENE 22:23:49 10° N visible
02 Jun 6.5 23:55:28 14° SSW 23:59:26 31° W 00:04:17 10° NNW visible
03 Jun 6.0 22:01:09 10° SE 22:06:10 39° ENE 22:11:11 10° N visible
03 Jun 6.2 23:42:45 15° SSW 23:46:49 39° W 23:51:55 10° NNW visible
04 Jun 6.3 21:48:59 10° ESE 21:53:45 32° ENE 21:58:31 10° N visible
04 Jun 5.8 23:30:03 16° S 23:34:13 48° W 23:39:31 10° NNW visible
05 Jun 5.5 23:17:20 16° S 23:21:38 60° WSW 23:27:04 10° NNW visible
06 Jun 5.3 23:04:38 16° S 23:09:06 75° WSW 23:14:35 10° NNW visible
